Regional Weather Roundup
Issued by NWS

Home | Current Version | Previous Version | Text Only | Print | Product List | Glossary Off
Versions: 1 2 3 4 5 6 7 8 9 10 11 12 13 14 15 16 17 18 19 20 21 22 23 24 25 26 27 28 29 30 31 32 33 34 35 36 37 38 39 40 41 42 43 44 45 46 47 48 49 50

000
ASUS43 KIND 201059
RWRIN

WEATHER ROUNDUP FOR INDIANA
NATIONAL WEATHER SERVICE INDIANAPOLIS IN
600 AM EST MON NOV 20 2017

NOTE: "FAIR" INDICATES FEW OR NO CLOUDS BELOW 12,000 FEET WITH NO
SIGNIFICANT WEATHER AND/OR OBSTRUCTIONS TO VISIBILITY.

* - STATION DOES NOT REPORT WEATHER SUCH AS PRECIPITATION OR FOG.

+ - STATION NOT QUALITY CONTROLLED BY THE NATIONAL WEATHER SERVICE.
    USE DATA WITH CAUTION...ESPECIALLY DEWPOINT AND RELATIVE
    HUMIDITY OBSERVATIONS.

INZ001>003-010>013-019-020-201200-
NORTHWEST INDIANA

CITY           SKY/WX    TMP DP  RH WIND       PRES   REMARKS
GARY /AIRPORT/ CLEAR     34  23  64 SW8       30.02F WCI  27
KNOX *+        CLEAR     30  23  74 S8        30.05S WCI  23
LA PORTE +     MOCLDY    28  23  83 S6        30.04F WCI  21
MONTICELLO +   CLOUDY    29  22  75 S9        30.09R WCI  21

$$

LMZ046-743>745-201200-
SOUTHERN LAKE MICHIGAN

STATION/POSITION TIME  TEMP    WIND        PRES    WAVE
                       AIR SEA DIR/SP/G            HT
                 (UTC) (F)     (DEG/KT/KT) (MB)    (FT)
BURNS HARBOR     1040   33     190/ 12/ 17 1016.9S
MICHIGAN CITY    1030   34     180/ 12/ 14   N/A

$$

INZ004-005-014>016-021>024-201200-
NORTH CENTRAL INDIANA

CITY           SKY/WX    TMP DP  RH WIND       PRES   REMARKS
GOSHEN         CLEAR     28  21  75 S10       30.05S WCI  19
PERU/GRISSOM   CLOUDY    28  24  83 S10       30.08F WCI  19
SOUTH BEND     CLEAR     28  23  81 SW12      30.04S WCI  18
WARSAW +       CLEAR     30  23  74 SW5       30.06F WCI  25

$$

INZ006>009-017-018-025>027-201200-
NORTHEAST INDIANA

CITY           SKY/WX    TMP DP  RH WIND       PRES   REMARKS
AUBURN +       CLEAR     28  23  80 SW6       30.08S WCI  22
FORT WAYNE     PTCLDY    28  24  85 SW8       30.10S WCI  20
KENDALLVILLE + CLEAR     27  22  84 SW9       30.05F WCI  17

$$

INZ028-029-035-036-043>045-051>053-201200-
WEST CENTRAL INDIANA

CITY           SKY/WX    TMP DP  RH WIND       PRES   REMARKS
LAFAYETTE      CLOUDY    30  23  75 SW7       30.11R WCI  23
TERRE HAUTE    CLOUDY    28  21  75 S8        30.17R WCI  20

$$

INZ030>032-037>040-046>048-054>057-064-065-201200-
CENTRAL INDIANA

CITY           SKY/WX    TMP DP  RH WIND       PRES   REMARKS
INDIANAPOLIS   CLOUDY    25  21  85 S6        30.16R WCI  18
-EAGLE CREEK   CLOUDY    26  21  81 S3        30.15R
KOKOMO +       CLEAR     28  24  85 S8        30.11S WCI  20
MT COMFORT *+  CLOUDY    25  25 100 S6        30.15R WCI  18
SHELBYVILLE    CLOUDY    27  21  78 S9        30.16S WCI  18

$$

INZ033-034-041-042-049-050-058-059-201200-
EAST CENTRAL INDIANA

CITY           SKY/WX    TMP DP  RH WIND       PRES   REMARKS
MUNCIE         CLEAR     29  21  72 SW8       30.13S WCI  21
RICHMOND +     CLEAR     25  23  93 SW7       30.15R WCI  17

$$

INZ060-061-067>069-081>083-085>088-201200-
SOUTHWEST INDIANA

CITY           SKY/WX    TMP DP  RH WIND       PRES   REMARKS
EVANSVILLE     CLEAR     27  24  89 CALM      30.23R
HUNTINGBURG +  CLEAR     25  22  88 S3        30.23R

$$

INZ062-063-066-070>080-084-089>092-201200-
SOUTH CENTRAL AND SOUTHEAST INDIANA

CITY           SKY/WX    TMP DP  RH WIND       PRES   REMARKS
BLOOMINGTON    CLEAR     25  19  78 CALM      30.17S
MADISON *+     CLEAR     28  23  80 CALM      30.23R
SEYMOUR +      CLEAR     27  21  80 CALM      30.21

$$





USA.gov is the U.S. government's official web portal to all federal, state and local government web resources and services.